Location: City of Moscow
(46.7306°N, 116.9989°W)
Time: 14:37:06
(UTC+00:00)

CUBEBUG 2 - Pass Details

Date: 27 April 2026
Orbit: 546 x 628 km, 97.9° (Epoch: 15 May)

Event Time Altitude Azimuth Distance (km) Brightness Sun altitude
Rises 10:26:36 0° 11° (N) 2,821 ? -19.4°
Reaches altitude 10° 10:28:48 10° 10° (N) 1,902 ? -19.2°
Maximum altitude 10:32:54 74° 286° (WNW) 596 ? -18.7°
Enters shadow 10:34:03 45° 213° (SSW) 780 ? -18.6°
